Time,TemperatureF,DewpointF,PressureIn,WindDirection,WindDirectionDegrees,WindSpeedMPH,WindSpeedGustMPH,Humidity,HourlyPrecipIn,Conditions,Clouds,dailyrainin,SoftwareType,DateUTC
2013-08-19 00:00:00,67.9,67.9,30.16,SE,133,0.0,0.0,100,0.04,,,0.72,dv,2013-08-19 04:00:00,
2013-08-19 00:05:00,67.7,67.7,30.15,SE,133,0.0,0.0,100,0.00,,,0.00,dv,2013-08-19 04:05:00,
2013-08-19 00:10:00,67.8,67.8,30.15,SE,133,1.6,1.6,100,0.00,,,0.00,dv,2013-08-19 04:10:00,
2013-08-19 00:15:00,67.9,67.9,30.15,SE,133,0.0,0.0,100,0.00,,,0.00,dv,2013-08-19 04:15:00,
2013-08-19 00:20:00,67.8,67.8,30.15,SE,133,1.6,1.6,100,0.00,,,0.00,dv,2013-08-19 04:20:00,
2013-08-19 00:25:00,67.7,67.7,30.15,SE,133,0.0,0.0,100,0.00,,,0.00,dv,2013-08-19 04:25:00,
2013-08-19 00:30:00,67.7,67.7,30.15,SE,133,0.0,0.0,100,0.00,,,0.00,dv,2013-08-19 04:30:00,
2013-08-19 00:35:00,67.8,67.8,30.15,SE,133,0.0,0.0,100,0.00,,,0.00,dv,2013-08-19 04:35:00,
2013-08-19 00:40:00,67.7,67.7,30.15,SE,133,0.0,0.0,100,0.00,,,0.00,dv,2013-08-19 04:40:00,
2013-08-19 00:45:00,67.7,67.7,30.16,SE,133,0.0,0.0,100,0.00,,,0.00,dv,2013-08-19 04:45:00,
2013-08-19 00:50:00,67.8,67.8,30.15,SE,133,0.0,0.0,100,0.00,,,0.00,dv,2013-08-19 04:50:00,
2013-08-19 00:55:00,67.8,67.8,30.15,SE,133,0.0,0.0,100,0.00,,,0.00,dv,2013-08-19 04:55:00,
2013-08-19 01:00:00,67.7,67.7,30.15,SE,133,0.0,0.0,100,0.00,,,0.00,dv,2013-08-19 05:00:00,
2013-08-19 01:05:00,67.8,67.8,30.16,SE,133,0.0,0.0,100,0.02,,,0.02,dv,2013-08-19 05:05:00,
2013-08-19 01:10:00,67.7,67.7,30.16,SE,133,0.0,0.0,100,0.06,,,0.06,dv,2013-08-19 05:10:00,
2013-08-19 01:15:00,67.8,67.8,30.16,SE,133,0.0,0.0,100,0.11,,,0.11,dv,2013-08-19 05:15:00,
2013-08-19 01:20:00,67.7,67.7,30.16,SE,133,0.0,0.0,100,0.24,,,0.24,dv,2013-08-19 05:20:00,
2013-08-19 01:25:00,67.7,67.7,30.16,SE,133,0.0,0.0,100,0.31,,,0.31,dv,2013-08-19 05:25:00,
2013-08-19 01:30:00,67.6,67.6,30.15,SE,133,0.0,0.0,100,0.34,,,0.34,dv,2013-08-19 05:30:00,
2013-08-19 01:35:00,67.7,67.7,30.15,SE,133,0.0,0.0,100,0.37,,,0.37,dv,2013-08-19 05:35:00,
2013-08-19 01:40:00,67.7,67.7,30.15,SE,133,0.0,0.0,100,0.39,,,0.39,dv,2013-08-19 05:40:00,
2013-08-19 01:45:00,67.5,67.5,30.15,SE,133,0.0,0.0,100,0.42,,,0.42,dv,2013-08-19 05:45:00,
2013-08-19 01:50:00,67.6,67.6,30.15,SE,133,0.0,0.0,100,0.56,,,0.56,dv,2013-08-19 05:50:00,
2013-08-19 01:55:00,67.5,67.5,30.14,SE,133,0.0,0.0,100,0.67,,,0.67,dv,2013-08-19 05:55:00,
2013-08-19 02:00:00,67.6,67.6,30.13,SE,133,1.6,1.6,100,0.71,,,0.71,dv,2013-08-19 06:00:00,
2013-08-19 02:05:00,67.7,67.7,30.13,SE,133,0.0,0.0,100,0.72,,,0.74,dv,2013-08-19 06:05:00,
2013-08-19 02:10:00,67.6,67.6,30.12,SE,133,1.6,1.6,100,0.69,,,0.75,dv,2013-08-19 06:10:00,
2013-08-19 02:15:00,67.7,67.7,30.13,SE,133,0.0,0.0,100,0.65,,,0.76,dv,2013-08-19 06:15:00,
2013-08-19 02:25:00,67.6,67.6,30.12,SE,133,0.0,0.0,100,0.48,,,0.79,dv,2013-08-19 06:25:00,
2013-08-19 02:30:00,67.6,67.6,30.11,SE,133,1.6,1.6,100,0.45,,,0.79,dv,2013-08-19 06:30:00,
2013-08-19 02:35:00,67.5,67.5,30.11,SE,133,1.6,1.6,100,0.43,,,0.80,dv,2013-08-19 06:35:00,
2013-08-19 02:40:00,67.3,67.3,30.11,SE,134,1.6,1.6,100,0.41,,,0.80,dv,2013-08-19 06:40:00,
2013-08-19 02:45:00,67.5,67.5,30.11,SE,133,1.6,1.6,100,0.39,,,0.81,dv,2013-08-19 06:45:00,
2013-08-19 02:50:00,67.3,67.3,30.10,SE,133,1.6,1.6,100,0.25,,,0.81,dv,2013-08-19 06:50:00,
2013-08-19 02:55:00,67.1,67.1,30.10,SE,133,0.0,0.0,100,0.14,,,0.81,dv,2013-08-19 06:55:00,
2013-08-19 03:00:00,67.2,67.2,30.10,SE,133,0.0,0.0,100,0.10,,,0.81,dv,2013-08-19 07:00:00,
2013-08-19 03:05:00,67.1,67.1,30.10,SE,133,0.0,0.0,100,0.07,,,0.81,dv,2013-08-19 07:05:00,
2013-08-19 03:10:00,67.2,67.2,30.10,SE,133,0.0,0.0,100,0.06,,,0.81,dv,2013-08-19 07:10:00,
2013-08-19 03:15:00,67.0,67.0,30.10,SE,133,0.0,0.0,100,0.05,,,0.81,dv,2013-08-19 07:15:00,
2013-08-19 03:20:00,67.0,67.0,30.10,SE,133,1.6,1.6,100,0.04,,,0.82,dv,2013-08-19 07:20:00,
2013-08-19 03:30:00,66.9,66.9,30.09,SE,133,1.6,1.6,100,0.09,,,0.88,dv,2013-08-19 07:30:00,
2013-08-19 03:35:00,66.9,66.9,30.09,SE,133,0.0,0.0,100,0.11,,,0.91,dv,2013-08-19 07:35:00,
2013-08-19 03:40:00,66.9,66.9,30.10,SE,133,1.6,1.6,100,0.16,,,0.96,dv,2013-08-19 07:40:00,
2013-08-19 03:45:00,67.0,67.0,30.10,SSE,154,3.2,3.2,100,0.22,,,1.03,dv,2013-08-19 07:45:00,
2013-08-19 03:50:00,67.2,67.2,30.10,SW,215,1.6,1.6,100,0.31,,,1.12,dv,2013-08-19 07:50:00,
2013-08-19 03:55:00,67.0,67.0,30.10,SW,216,0.0,0.0,100,0.43,,,1.24,dv,2013-08-19 07:55:00,
2013-08-19 04:00:00,66.9,66.9,30.10,SW,215,1.6,1.6,100,0.60,,,1.41,dv,2013-08-19 08:00:00,
2013-08-19 04:05:00,66.9,66.9,30.10,SW,216,0.0,0.0,100,0.88,,,1.69,dv,2013-08-19 08:05:00,
2013-08-19 04:10:00,66.9,66.9,30.10,SW,215,0.0,0.0,100,1.06,,,1.87,dv,2013-08-19 08:10:00,
2013-08-19 04:15:00,67.1,67.1,30.10,SW,215,0.0,0.0,100,1.17,,,1.98,dv,2013-08-19 08:15:00,
2013-08-19 04:20:00,67.1,67.1,30.10,SW,216,0.0,0.0,100,1.18,,,2.00,dv,2013-08-19 08:20:00,
2013-08-19 04:25:00,66.8,66.8,30.10,SW,216,0.0,0.0,100,1.14,,,2.00,dv,2013-08-19 08:25:00,
2013-08-19 04:30:00,66.8,66.8,30.10,SW,215,0.0,0.0,100,1.13,,,2.01,dv,2013-08-19 08:30:00,
2013-08-19 04:35:00,67.0,67.0,30.10,SW,216,0.0,0.0,100,1.11,,,2.02,dv,2013-08-19 08:35:00,
2013-08-19 04:40:00,66.9,66.9,30.10,SW,216,0.0,0.0,100,1.06,,,2.02,dv,2013-08-19 08:40:00,
2013-08-19 04:45:00,67.0,67.0,30.09,SW,215,0.0,0.0,100,0.99,,,2.02,dv,2013-08-19 08:45:00,
2013-08-19 04:50:00,67.2,67.2,30.10,SW,215,0.0,0.0,100,0.90,,,2.02,dv,2013-08-19 08:50:00,
2013-08-19 04:55:00,67.1,67.1,30.09,SW,216,0.0,0.0,100,0.78,,,2.02,dv,2013-08-19 08:55:00,
2013-08-19 05:00:00,66.9,66.9,30.09,SW,215,0.0,0.0,100,0.61,,,2.02,dv,2013-08-19 09:00:00,
2013-08-19 05:10:00,67.0,67.0,30.10,SW,216,0.0,0.0,100,0.16,,,2.03,dv,2013-08-19 09:10:00,
2013-08-19 05:15:00,67.1,67.1,30.10,SW,215,0.0,0.0,100,0.05,,,2.03,dv,2013-08-19 09:15:00,
2013-08-19 05:20:00,67.0,67.0,30.09,SW,215,0.0,0.0,100,0.03,,,2.03,dv,2013-08-19 09:20:00,
2013-08-19 05:30:00,67.1,67.1,30.09,SW,215,0.0,0.0,100,0.02,,,2.03,dv,2013-08-19 09:30:00,
2013-08-19 05:40:00,67.2,67.2,30.09,SW,215,0.0,0.0,100,0.01,,,2.03,dv,2013-08-19 09:40:00,
2013-08-19 05:45:00,66.9,66.9,30.10,SW,215,0.0,0.0,100,0.01,,,2.03,dv,2013-08-19 09:45:00,
2013-08-19 05:50:00,67.0,67.0,30.09,SW,215,0.0,0.0,100,0.01,,,2.03,dv,2013-08-19 09:50:00,
2013-08-19 05:55:00,67.0,67.0,30.09,SW,215,0.0,0.0,100,0.01,,,2.03,dv,2013-08-19 09:55:00,
2013-08-19 06:00:00,66.9,66.9,30.09,SW,215,0.0,0.0,100,0.01,,,2.03,dv,2013-08-19 10:00:00,
2013-08-19 06:10:00,66.9,66.9,30.10,SW,215,0.0,0.0,100,0.00,,,2.03,dv,2013-08-19 10:10:00,
2013-08-19 06:15:00,66.8,66.8,30.10,SW,215,0.0,0.0,100,0.00,,,2.03,dv,2013-08-19 10:15:00,
2013-08-19 06:20:00,66.8,66.8,30.10,SW,215,0.0,0.0,100,0.00,,,2.03,dv,2013-08-19 10:20:00,
2013-08-19 06:25:00,66.9,66.9,30.10,SW,215,0.0,0.0,100,0.00,,,2.03,dv,2013-08-19 10:25:00,
2013-08-19 06:30:00,66.8,66.8,30.10,SW,216,0.0,0.0,100,0.00,,,2.03,dv,2013-08-19 10:30:00,
2013-08-19 06:35:00,67.0,67.0,30.10,SW,215,0.0,0.0,100,0.00,,,2.03,dv,2013-08-19 10:35:00,
2013-08-19 06:40:00,66.8,66.8,30.10,SW,215,0.0,0.0,100,0.00,,,2.03,dv,2013-08-19 10:40:00,
2013-08-19 06:45:00,66.9,66.9,30.10,SW,215,0.0,0.0,100,0.00,,,2.03,dv,2013-08-19 10:45:00,
2013-08-19 06:50:00,66.7,66.7,30.10,SW,216,0.0,0.0,100,0.00,,,2.03,dv,2013-08-19 10:50:00,
2013-08-19 06:55:00,66.7,66.7,30.10,SW,215,0.0,0.0,100,0.00,,,2.03,dv,2013-08-19 10:55:00,
2013-08-19 07:00:00,66.8,66.8,30.10,SW,215,0.0,0.0,100,0.00,,,2.03,dv,2013-08-19 11:00:00,
2013-08-19 07:05:00,66.8,66.8,30.10,SW,216,0.0,0.0,100,0.00,,,2.03,dv,2013-08-19 11:05:00,
2013-08-19 07:10:00,66.6,66.6,30.10,SW,216,0.0,0.0,100,0.00,,,2.03,dv,2013-08-19 11:10:00,
2013-08-19 07:15:00,66.7,66.7,30.10,SW,216,0.0,0.0,100,0.00,,,2.03,dv,2013-08-19 11:15:00,
2013-08-19 07:20:00,66.7,66.7,30.10,SW,215,0.0,0.0,100,0.00,,,2.03,dv,2013-08-19 11:20:00,
2013-08-19 07:25:00,66.8,66.8,30.11,SW,215,0.0,0.0,100,0.00,,,2.03,dv,2013-08-19 11:25:00,
2013-08-19 07:35:00,66.7,66.7,30.11,SW,215,0.0,0.0,100,0.00,,,2.03,dv,2013-08-19 11:35:00,
2013-08-19 07:45:00,66.6,66.6,30.11,SW,216,0.0,0.0,100,0.00,,,2.03,dv,2013-08-19 11:45:00,
2013-08-19 07:50:00,66.7,66.7,30.11,SW,215,0.0,0.0,100,0.00,,,2.03,dv,2013-08-19 11:50:00,
2013-08-19 07:55:00,66.6,66.6,30.11,SW,216,0.0,0.0,100,0.00,,,2.03,dv,2013-08-19 11:55:00,
2013-08-19 08:00:00,66.8,66.8,30.11,SW,216,0.0,0.0,100,0.00,,,2.03,dv,2013-08-19 12:00:00,
2013-08-19 08:05:00,66.6,66.6,30.11,SW,215,0.0,0.0,100,0.00,,,2.03,dv,2013-08-19 12:05:00,
2013-08-19 08:10:00,66.8,66.8,30.10,SW,215,0.0,0.0,100,0.00,,,2.03,dv,2013-08-19 12:10:00,
2013-08-19 08:15:00,66.8,66.8,30.11,SW,216,0.0,0.0,100,0.00,,,2.03,dv,2013-08-19 12:15:00,
2013-08-19 08:20:00,66.8,66.8,30.11,SW,215,0.0,0.0,100,0.01,,,2.04,dv,2013-08-19 12:20:00,
2013-08-19 08:25:00,66.8,66.8,30.11,SW,215,0.0,0.0,100,0.01,,,2.04,dv,2013-08-19 12:25:00,
2013-08-19 08:30:00,66.7,66.7,30.12,SW,215,0.0,0.0,100,0.01,,,2.04,dv,2013-08-19 12:30:00,
2013-08-19 08:35:00,66.9,66.9,30.11,SW,215,0.0,0.0,100,0.01,,,2.04,dv,2013-08-19 12:35:00,
2013-08-19 08:40:00,67.0,67.0,30.11,SW,215,0.0,0.0,100,0.01,,,2.04,dv,2013-08-19 12:40:00,
2013-08-19 08:45:00,66.9,66.9,30.11,SW,215,0.0,0.0,100,0.01,,,2.04,dv,2013-08-19 12:45:00,
2013-08-19 08:50:00,67.0,67.0,30.11,SW,215,0.0,0.0,100,0.01,,,2.04,dv,2013-08-19 12:50:00,
2013-08-19 08:55:00,67.2,67.2,30.12,SW,215,0.0,0.0,100,0.01,,,2.04,dv,2013-08-19 12:55:00,
2013-08-19 09:00:00,67.0,67.0,30.12,SW,215,0.0,0.0,100,0.01,,,2.04,dv,2013-08-19 13:00:00,
2013-08-19 09:05:00,67.2,67.2,30.12,SW,215,0.0,0.0,100,0.01,,,2.04,dv,2013-08-19 13:05:00,
2013-08-19 09:10:00,67.3,67.3,30.12,SW,215,0.0,0.0,100,0.01,,,2.04,dv,2013-08-19 13:10:00,
2013-08-19 09:15:00,67.5,67.5,30.12,SW,215,0.0,0.0,100,0.01,,,2.04,dv,2013-08-19 13:15:00,
2013-08-19 09:20:00,67.5,67.5,30.12,SW,215,0.0,0.0,100,0.00,,,2.04,dv,2013-08-19 13:20:00,
2013-08-19 09:25:00,67.6,67.6,30.13,SW,215,0.0,0.0,100,0.00,,,2.04,dv,2013-08-19 13:25:00,
2013-08-19 09:30:00,67.7,67.7,30.13,SW,216,0.0,0.0,100,0.00,,,2.04,dv,2013-08-19 13:30:00,
2013-08-19 09:40:00,67.6,67.6,30.13,SW,215,0.0,0.0,100,0.00,,,2.04,dv,2013-08-19 13:40:00,
2013-08-19 09:45:00,67.5,67.5,30.13,SW,216,0.0,0.0,100,0.00,,,2.04,dv,2013-08-19 13:45:00,
2013-08-19 09:50:00,67.6,67.6,30.13,SW,215,0.0,0.0,100,0.00,,,2.04,dv,2013-08-19 13:50:00,
2013-08-19 09:55:00,67.8,67.8,30.13,SW,215,0.0,0.0,100,0.00,,,2.04,dv,2013-08-19 13:55:00,
2013-08-19 10:00:00,67.7,67.7,30.13,SW,215,0.0,0.0,100,0.00,,,2.04,dv,2013-08-19 14:00:00,
2013-08-19 10:05:00,67.6,67.6,30.13,SW,215,0.0,0.0,100,0.00,,,2.04,dv,2013-08-19 14:05:00,
2013-08-19 10:10:00,67.7,67.7,30.13,SW,215,0.0,0.0,100,0.00,,,2.04,dv,2013-08-19 14:10:00,
2013-08-19 10:15:00,67.9,67.9,30.13,SW,215,0.0,0.0,100,0.00,,,2.04,dv,2013-08-19 14:15:00,
2013-08-19 10:20:00,68.0,68.0,30.13,SW,215,0.0,0.0,100,0.00,,,2.04,dv,2013-08-19 14:20:00,
2013-08-19 10:25:00,68.0,68.0,30.13,SW,215,0.0,0.0,100,0.00,,,2.04,dv,2013-08-19 14:25:00,
2013-08-19 10:30:00,68.2,68.2,30.14,SW,215,0.0,0.0,100,0.00,,,2.04,dv,2013-08-19 14:30:00,
2013-08-19 10:35:00,68.3,68.3,30.14,SW,215,0.0,0.0,100,0.00,,,2.04,dv,2013-08-19 14:35:00,
2013-08-19 10:45:00,68.5,68.5,30.14,SW,215,1.6,1.6,100,0.00,,,2.04,dv,2013-08-19 14:45:00,
2013-08-19 10:50:00,68.5,68.5,30.14,SW,215,0.0,0.0,100,0.00,,,2.04,dv,2013-08-19 14:50:00,
2013-08-19 10:55:00,68.8,68.8,30.14,SW,215,0.0,0.0,100,0.00,,,2.04,dv,2013-08-19 14:55:00,
2013-08-19 11:00:00,68.9,68.9,30.14,SW,215,0.0,0.0,100,0.00,,,2.04,dv,2013-08-19 15:00:00,
2013-08-19 11:05:00,68.9,68.9,30.14,SW,215,0.0,0.0,100,0.00,,,2.04,dv,2013-08-19 15:05:00,
2013-08-19 11:15:00,68.8,68.8,30.14,SW,215,0.0,0.0,100,0.00,,,2.04,dv,2013-08-19 15:15:00,
2013-08-19 11:25:00,69.0,69.0,30.14,SW,215,0.0,0.0,100,0.00,,,2.04,dv,2013-08-19 15:25:00,
2013-08-19 11:30:00,69.2,69.2,30.14,SW,215,0.0,0.0,100,0.00,,,2.04,dv,2013-08-19 15:30:00,
2013-08-19 11:40:00,69.2,69.2,30.14,SW,215,0.0,0.0,100,0.00,,,2.04,dv,2013-08-19 15:40:00,
2013-08-19 11:45:00,69.3,69.3,30.14,SW,215,0.0,0.0,100,0.00,,,2.04,dv,2013-08-19 15:45:00,
2013-08-19 11:55:00,69.4,69.4,30.14,SW,215,0.0,0.0,100,0.00,,,2.04,dv,2013-08-19 15:55:00,
2013-08-19 12:00:00,69.6,69.6,30.14,SW,215,0.0,0.0,100,0.00,,,2.04,dv,2013-08-19 16:00:00,
2013-08-19 12:05:00,69.7,69.7,30.14,SW,215,0.0,0.0,100,0.00,,,2.04,dv,2013-08-19 16:05:00,
2013-08-19 12:10:00,69.5,69.5,30.14,SW,215,0.0,0.0,100,0.00,,,2.04,dv,2013-08-19 16:10:00,
2013-08-19 12:15:00,69.6,69.6,30.14,SW,215,0.0,0.0,100,0.00,,,2.04,dv,2013-08-19 16:15:00,
2013-08-19 12:20:00,69.7,69.7,30.14,SW,215,0.0,0.0,100,0.00,,,2.04,dv,2013-08-19 16:20:00,
2013-08-19 12:25:00,69.7,69.7,30.14,SW,215,0.0,0.0,100,0.00,,,2.04,dv,2013-08-19 16:25:00,
2013-08-19 12:30:00,69.6,69.6,30.14,SW,215,0.0,0.0,100,0.00,,,2.04,dv,2013-08-19 16:30:00,
2013-08-19 12:35:00,69.6,69.6,30.14,SW,215,0.0,0.0,100,0.00,,,2.04,dv,2013-08-19 16:35:00,
2013-08-19 12:40:00,69.7,69.7,30.14,SW,215,0.0,0.0,100,0.00,,,2.04,dv,2013-08-19 16:40:00,
2013-08-19 12:45:00,69.8,69.8,30.14,SW,215,0.0,0.0,100,0.00,,,2.04,dv,2013-08-19 16:45:00,
2013-08-19 12:55:00,69.8,69.8,30.13,SW,215,0.0,0.0,100,0.01,,,2.05,dv,2013-08-19 16:55:00,
2013-08-19 13:00:00,69.9,69.9,30.14,SW,215,0.0,0.0,100,0.01,,,2.05,dv,2013-08-19 17:00:00,
2013-08-19 13:05:00,70.2,70.2,30.13,SW,216,0.0,0.0,100,0.01,,,2.05,dv,2013-08-19 17:05:00,
2013-08-19 13:10:00,70.2,70.2,30.13,SW,215,0.0,0.0,100,0.01,,,2.05,dv,2013-08-19 17:10:00,
2013-08-19 13:15:00,70.2,70.2,30.13,SW,215,0.0,0.0,100,0.01,,,2.05,dv,2013-08-19 17:15:00,
2013-08-19 13:25:00,69.9,69.9,30.13,SW,215,0.0,0.0,100,0.01,,,2.05,dv,2013-08-19 17:25:00,
2013-08-19 13:30:00,69.8,69.8,30.13,SW,215,0.0,0.0,100,0.01,,,2.05,dv,2013-08-19 17:30:00,
2013-08-19 13:35:00,69.9,69.9,30.13,SW,215,0.0,0.0,100,0.01,,,2.05,dv,2013-08-19 17:35:00,
2013-08-19 13:45:00,69.9,69.9,30.13,SW,215,0.0,0.0,100,0.01,,,2.05,dv,2013-08-19 17:45:00,
2013-08-19 13:50:00,70.1,70.1,30.13,SW,216,0.0,0.0,100,0.00,,,2.05,dv,2013-08-19 17:50:00,
2013-08-19 13:55:00,70.3,70.3,30.13,SW,215,0.0,0.0,100,0.00,,,2.05,dv,2013-08-19 17:55:00,
2013-08-19 14:00:00,70.1,70.1,30.13,SW,215,0.0,0.0,100,0.00,,,2.05,dv,2013-08-19 18:00:00,
2013-08-19 14:05:00,70.2,70.2,30.12,SW,215,0.0,0.0,100,0.00,,,2.05,dv,2013-08-19 18:05:00,
2013-08-19 14:15:00,70.2,70.2,30.12,SW,215,0.0,0.0,100,0.00,,,2.05,dv,2013-08-19 18:15:00,
2013-08-19 14:20:00,70.2,70.2,30.12,SW,215,0.0,0.0,100,0.00,,,2.05,dv,2013-08-19 18:20:00,
2013-08-19 14:25:00,70.2,70.2,30.12,SW,215,0.0,0.0,100,0.00,,,2.05,dv,2013-08-19 18:25:00,
2013-08-19 14:30:00,70.3,70.3,30.12,SW,215,0.0,0.0,100,0.00,,,2.05,dv,2013-08-19 18:30:00,
2013-08-19 14:35:00,70.3,70.3,30.11,SW,215,0.0,0.0,100,0.00,,,2.05,dv,2013-08-19 18:35:00,
2013-08-19 14:40:00,70.3,70.3,30.12,SW,215,0.0,0.0,100,0.00,,,2.05,dv,2013-08-19 18:40:00,
2013-08-19 14:45:00,70.4,70.4,30.11,SW,215,0.0,0.0,100,0.00,,,2.05,dv,2013-08-19 18:45:00,
2013-08-19 14:50:00,70.4,70.4,30.11,SW,215,0.0,0.0,100,0.00,,,2.05,dv,2013-08-19 18:50:00,
2013-08-19 14:55:00,70.6,70.6,30.11,SW,215,0.0,0.0,100,0.00,,,2.05,dv,2013-08-19 18:55:00,
2013-08-19 15:05:00,70.6,70.6,30.10,SW,215,0.0,0.0,100,0.00,,,2.05,dv,2013-08-19 19:05:00,
2013-08-19 15:10:00,70.5,70.5,30.10,SW,215,0.0,0.0,100,0.00,,,2.05,dv,2013-08-19 19:10:00,
2013-08-19 15:15:00,70.6,70.6,30.10,SW,215,0.0,0.0,100,0.00,,,2.05,dv,2013-08-19 19:15:00,
2013-08-19 15:20:00,70.5,70.5,30.10,SW,215,0.0,0.0,100,0.00,,,2.05,dv,2013-08-19 19:20:00,
2013-08-19 15:25:00,70.7,70.7,30.10,SW,215,0.0,0.0,100,0.00,,,2.05,dv,2013-08-19 19:25:00,
2013-08-19 15:30:00,70.8,70.8,30.10,SW,215,0.0,0.0,100,0.00,,,2.05,dv,2013-08-19 19:30:00,
2013-08-19 15:35:00,70.8,70.8,30.10,SW,215,0.0,0.0,100,0.00,,,2.05,dv,2013-08-19 19:35:00,
2013-08-19 15:40:00,70.8,70.8,30.10,SW,215,0.0,0.0,100,0.00,,,2.05,dv,2013-08-19 19:40:00,
2013-08-19 15:45:00,71.0,71.0,30.10,SW,215,0.0,0.0,100,0.00,,,2.05,dv,2013-08-19 19:45:00,
2013-08-19 15:50:00,71.1,71.1,30.09,SW,215,0.0,0.0,100,0.00,,,2.05,dv,2013-08-19 19:50:00,
2013-08-19 16:00:00,71.4,71.4,30.09,SW,215,0.0,0.0,100,0.00,,,2.05,dv,2013-08-19 20:00:00,
2013-08-19 16:10:00,71.3,71.3,30.08,SW,215,0.0,0.0,100,0.00,,,2.05,dv,2013-08-19 20:10:00,
2013-08-19 16:15:00,71.0,71.0,30.08,SW,215,0.0,0.0,100,0.00,,,2.05,dv,2013-08-19 20:15:00,
2013-08-19 16:20:00,70.9,70.9,30.08,SW,215,0.0,0.0,100,0.00,,,2.05,dv,2013-08-19 20:20:00,
2013-08-19 16:25:00,71.0,71.0,30.08,SW,215,0.0,0.0,100,0.00,,,2.05,dv,2013-08-19 20:25:00,
2013-08-19 16:30:00,71.2,71.2,30.08,SW,215,0.0,0.0,100,0.00,,,2.05,dv,2013-08-19 20:30:00,
2013-08-19 16:35:00,71.4,71.4,30.07,SW,215,0.0,0.0,100,0.00,,,2.05,dv,2013-08-19 20:35:00,
2013-08-19 16:40:00,71.3,71.3,30.07,SW,215,1.6,1.6,100,0.00,,,2.05,dv,2013-08-19 20:40:00,
2013-08-19 16:45:00,71.1,71.1,30.07,SW,215,0.0,0.0,100,0.00,,,2.05,dv,2013-08-19 20:45:00,
2013-08-19 16:50:00,71.2,71.2,30.07,SW,215,0.0,0.0,100,0.00,,,2.05,dv,2013-08-19 20:50:00,
2013-08-19 16:55:00,71.4,71.4,30.08,SW,215,0.0,0.0,100,0.00,,,2.05,dv,2013-08-19 20:55:00,
2013-08-19 17:00:00,71.5,71.5,30.07,SW,215,0.0,0.0,100,0.00,,,2.05,dv,2013-08-19 21:00:00,
2013-08-19 17:05:00,71.5,71.5,30.07,SW,215,0.0,0.0,100,0.00,,,2.05,dv,2013-08-19 21:05:00,
2013-08-19 17:10:00,71.3,71.3,30.07,SW,215,0.0,0.0,100,0.00,,,2.05,dv,2013-08-19 21:10:00,
2013-08-19 17:15:00,71.4,71.4,30.07,SW,215,0.0,0.0,100,0.00,,,2.05,dv,2013-08-19 21:15:00,
2013-08-19 17:20:00,71.3,71.3,30.07,SW,215,0.0,0.0,100,0.00,,,2.05,dv,2013-08-19 21:20:00,
2013-08-19 17:25:00,71.2,71.2,30.07,SW,215,0.0,0.0,100,0.00,,,2.05,dv,2013-08-19 21:25:00,
2013-08-19 17:30:00,71.2,71.2,30.07,SW,215,1.6,1.6,100,0.00,,,2.05,dv,2013-08-19 21:30:00,
2013-08-19 17:35:00,71.4,71.4,30.07,SW,215,1.6,1.6,100,0.00,,,2.05,dv,2013-08-19 21:35:00,
2013-08-19 17:40:00,71.5,71.5,30.07,SW,215,0.0,0.0,100,0.00,,,2.05,dv,2013-08-19 21:40:00,
2013-08-19 17:45:00,71.4,71.4,30.07,SE,137,3.2,3.2,100,0.00,,,2.05,dv,2013-08-19 21:45:00,
2013-08-19 17:50:00,71.2,71.2,30.06,SE,137,0.0,0.0,100,0.00,,,2.05,dv,2013-08-19 21:50:00,
2013-08-19 17:55:00,71.1,71.1,30.06,SE,137,0.0,0.0,100,0.00,,,2.05,dv,2013-08-19 21:55:00,
2013-08-19 18:00:00,71.2,71.2,30.06,SE,137,0.0,0.0,100,0.00,,,2.05,dv,2013-08-19 22:00:00,
2013-08-19 18:05:00,71.1,71.1,30.06,SE,137,0.0,0.0,100,0.00,,,2.05,dv,2013-08-19 22:05:00,
2013-08-19 18:10:00,71.3,71.3,30.06,SE,137,1.6,1.6,100,0.00,,,2.05,dv,2013-08-19 22:10:00,
2013-08-19 18:15:00,71.3,71.3,30.06,SE,137,0.0,0.0,100,0.00,,,2.05,dv,2013-08-19 22:15:00,
2013-08-19 18:20:00,71.4,71.4,30.06,SE,137,1.6,1.6,100,0.00,,,2.05,dv,2013-08-19 22:20:00,
2013-08-19 18:25:00,71.5,71.5,30.06,SE,137,0.0,0.0,100,0.00,,,2.05,dv,2013-08-19 22:25:00,
2013-08-19 18:30:00,71.4,71.4,30.06,SE,137,0.0,0.0,100,0.00,,,2.05,dv,2013-08-19 22:30:00,
2013-08-19 18:35:00,71.5,71.5,30.07,SE,137,0.0,0.0,100,0.00,,,2.05,dv,2013-08-19 22:35:00,
2013-08-19 18:40:00,71.5,71.5,30.07,SE,137,0.0,0.0,100,0.00,,,2.05,dv,2013-08-19 22:40:00,
2013-08-19 18:45:00,71.4,71.4,30.07,SE,137,0.0,0.0,100,0.00,,,2.05,dv,2013-08-19 22:45:00,
2013-08-19 18:50:00,71.3,71.3,30.07,SE,137,0.0,0.0,100,0.00,,,2.05,dv,2013-08-19 22:50:00,
2013-08-19 18:55:00,71.1,70.9,30.06,SE,137,0.0,0.0,99,0.00,,,2.05,dv,2013-08-19 22:55:00,
2013-08-19 19:00:00,71.1,70.9,30.06,SE,137,0.0,0.0,99,0.00,,,2.05,dv,2013-08-19 23:00:00,
2013-08-19 19:05:00,71.1,70.9,30.07,SE,137,0.0,0.0,99,0.00,,,2.05,dv,2013-08-19 23:05:00,
2013-08-19 19:10:00,71.0,70.8,30.07,SE,137,0.0,0.0,99,0.00,,,2.05,dv,2013-08-19 23:10:00,
2013-08-19 19:15:00,71.0,70.8,30.06,SE,137,0.0,0.0,99,0.00,,,2.05,dv,2013-08-19 23:15:00,
2013-08-19 19:20:00,71.0,70.8,30.07,SE,137,0.0,0.0,99,0.00,,,2.05,dv,2013-08-19 23:20:00,
2013-08-19 19:25:00,71.0,70.8,30.07,SE,137,0.0,0.0,99,0.00,,,2.05,dv,2013-08-19 23:25:00,
2013-08-19 19:30:00,71.0,70.8,30.07,SE,137,0.0,0.0,99,0.00,,,2.05,dv,2013-08-19 23:30:00,
2013-08-19 19:35:00,71.0,70.8,30.07,SE,137,0.0,0.0,99,0.00,,,2.05,dv,2013-08-19 23:35:00,
2013-08-19 19:40:00,70.9,70.7,30.07,SE,137,0.0,0.0,99,0.00,,,2.05,dv,2013-08-19 23:40:00,
2013-08-19 19:45:00,71.0,70.8,30.07,SE,137,0.0,0.0,99,0.00,,,2.05,dv,2013-08-19 23:45:00,
2013-08-19 19:50:00,70.9,70.7,30.07,SE,137,0.0,0.0,99,0.00,,,2.05,dv,2013-08-19 23:50:00,
2013-08-19 19:55:00,70.9,70.7,30.07,SE,137,0.0,0.0,99,0.00,,,2.05,dv,2013-08-19 23:55:00,
2013-08-19 20:00:00,70.9,70.7,30.07,SE,137,0.0,0.0,99,0.00,,,2.05,dv,2013-08-20 00:00:00,
2013-08-19 20:05:00,70.8,70.6,30.07,SE,137,0.0,0.0,99,0.00,,,2.05,dv,2013-08-20 00:05:00,
2013-08-19 20:10:00,70.6,70.4,30.07,SE,137,0.0,0.0,99,0.00,,,2.05,dv,2013-08-20 00:10:00,
2013-08-19 20:15:00,70.8,70.6,30.08,SE,137,0.0,0.0,99,0.00,,,2.05,dv,2013-08-20 00:15:00,
2013-08-19 20:20:00,70.6,70.4,30.08,SE,137,0.0,0.0,99,0.00,,,2.05,dv,2013-08-20 00:20:00,
2013-08-19 20:25:00,70.6,70.6,30.08,SE,137,0.0,0.0,100,0.00,,,2.05,dv,2013-08-20 00:25:00,
2013-08-19 20:30:00,70.5,70.3,30.08,SE,137,0.0,0.0,99,0.00,,,2.05,dv,2013-08-20 00:30:00,
2013-08-19 20:35:00,70.4,70.2,30.08,SE,137,0.0,0.0,99,0.00,,,2.05,dv,2013-08-20 00:35:00,
2013-08-19 20:40:00,70.4,70.2,30.08,SE,137,0.0,0.0,99,0.00,,,2.05,dv,2013-08-20 00:40:00,
2013-08-19 20:50:00,70.4,70.2,30.08,SE,137,0.0,0.0,99,0.00,,,2.05,dv,2013-08-20 00:50:00,
2013-08-19 20:55:00,70.2,70.2,30.08,SE,137,0.0,0.0,100,0.00,,,2.05,dv,2013-08-20 00:55:00,
2013-08-19 21:00:00,70.2,70.0,30.08,SE,137,0.0,0.0,99,0.00,,,2.05,dv,2013-08-20 01:00:00,
2013-08-19 21:05:00,70.2,70.0,30.08,SE,137,0.0,0.0,99,0.00,,,2.05,dv,2013-08-20 01:05:00,
2013-08-19 21:10:00,70.0,69.8,30.08,SE,137,0.0,0.0,99,0.00,,,2.05,dv,2013-08-20 01:10:00,
2013-08-19 21:15:00,69.9,69.9,30.08,SE,137,0.0,0.0,100,0.00,,,2.05,dv,2013-08-20 01:15:00,
2013-08-19 21:20:00,69.8,69.6,30.08,SE,137,0.0,0.0,99,0.00,,,2.05,dv,2013-08-20 01:20:00,
2013-08-19 21:25:00,69.8,69.6,30.08,SE,137,0.0,0.0,99,0.00,,,2.05,dv,2013-08-20 01:25:00,
2013-08-19 21:30:00,69.6,69.4,30.09,SE,137,0.0,0.0,99,0.00,,,2.05,dv,2013-08-20 01:30:00,
2013-08-19 21:35:00,69.6,69.6,30.09,SE,137,0.0,0.0,100,0.00,,,2.05,dv,2013-08-20 01:35:00,
2013-08-19 21:40:00,69.5,69.5,30.09,SE,137,0.0,0.0,100,0.00,,,2.05,dv,2013-08-20 01:40:00,
2013-08-19 21:45:00,69.5,69.5,30.09,SE,137,0.0,0.0,100,0.00,,,2.05,dv,2013-08-20 01:45:00,
2013-08-19 21:50:00,69.4,69.4,30.10,SE,137,0.0,0.0,100,0.00,,,2.05,dv,2013-08-20 01:50:00,
2013-08-19 21:55:00,69.4,69.4,30.09,SE,137,0.0,0.0,100,0.00,,,2.05,dv,2013-08-20 01:55:00,
2013-08-19 22:00:00,69.2,69.2,30.10,SE,137,0.0,0.0,100,0.00,,,2.05,dv,2013-08-20 02:00:00,
2013-08-19 22:05:00,69.3,69.3,30.10,SE,137,0.0,0.0,100,0.00,,,2.05,dv,2013-08-20 02:05:00,
2013-08-19 22:10:00,69.3,69.3,30.09,SE,137,0.0,0.0,100,0.00,,,2.05,dv,2013-08-20 02:10:00,
2013-08-19 22:15:00,69.2,69.2,30.10,SE,137,0.0,0.0,100,0.00,,,2.05,dv,2013-08-20 02:15:00,
2013-08-19 22:20:00,69.1,69.1,30.10,SE,137,0.0,0.0,100,0.00,,,2.05,dv,2013-08-20 02:20:00,
2013-08-19 22:25:00,69.1,57.9,30.10,SE,137,0.0,0.0,60,0.00,,,2.05,dv,2013-08-20 02:25:00,
2013-08-19 22:30:00,69.0,69.0,30.10,SE,137,0.0,0.0,100,0.00,,,2.05,dv,2013-08-20 02:30:00,
2013-08-19 22:35:00,69.1,69.1,30.10,SE,137,0.0,0.0,100,0.00,,,2.05,dv,2013-08-20 02:35:00,
2013-08-19 22:40:00,69.1,69.1,30.11,SE,137,0.0,0.0,100,0.00,,,2.05,dv,2013-08-20 02:40:00,
2013-08-19 22:45:00,69.1,36.3,30.11,SE,137,0.0,0.0,20,0.00,,,2.05,dv,2013-08-20 02:45:00,
2013-08-19 22:50:00,69.1,69.1,30.11,SE,137,0.0,0.0,100,0.00,,,2.05,dv,2013-08-20 02:50:00,
2013-08-19 22:55:00,68.9,68.9,30.11,SE,137,0.0,0.0,100,0.00,,,2.05,dv,2013-08-20 02:55:00,
2013-08-19 23:00:00,69.0,69.0,30.11,SE,137,0.0,0.0,100,0.00,,,2.05,dv,2013-08-20 03:00:00,
2013-08-19 23:05:00,68.9,68.9,30.11,SE,137,0.0,0.0,100,0.00,,,2.05,dv,2013-08-20 03:05:00,
2013-08-19 23:10:00,68.9,68.9,30.12,SE,137,0.0,0.0,100,0.00,,,2.05,dv,2013-08-20 03:10:00,
2013-08-19 23:15:00,68.8,68.8,30.12,SE,137,0.0,0.0,100,0.00,,,2.05,dv,2013-08-20 03:15:00,
2013-08-19 23:20:00,68.8,68.8,30.12,SE,137,0.0,0.0,100,0.00,,,2.05,dv,2013-08-20 03:20:00,
2013-08-19 23:25:00,68.9,68.9,30.12,SE,137,0.0,0.0,100,0.00,,,2.05,dv,2013-08-20 03:25:00,
2013-08-19 23:30:00,68.8,68.8,30.12,SE,137,0.0,0.0,100,0.00,,,2.05,dv,2013-08-20 03:30:00,
2013-08-19 23:35:00,68.8,68.8,30.12,SE,137,0.0,0.0,100,0.00,,,2.05,dv,2013-08-20 03:35:00,
2013-08-19 23:40:00,68.8,68.8,30.12,SE,137,0.0,0.0,100,0.00,,,2.05,dv,2013-08-20 03:40:00,
2013-08-19 23:45:00,68.9,68.9,30.12,SE,137,0.0,0.0,100,0.00,,,2.05,dv,2013-08-20 03:45:00,
2013-08-19 23:50:00,68.9,68.9,30.12,SE,137,0.0,0.0,100,0.00,,,2.05,dv,2013-08-20 03:50:00,
2013-08-19 23:55:00,68.9,68.9,30.11,SE,137,0.0,0.0,100,0.00,,,2.05,dv,2013-08-20 03:55:00,